Weather History for Gwinner, ND

Change the Weather History Date:

Saturday, January 12, 2013

  Actual Average (KP67) Record (KP67)
Temperature  
Mean Temperature 6 °F -  
Max Temperature 12 °F 13 °F 0 °F (1997)
Min Temperature 1 °F -1 °F -15 °F (1998)
Degree Days  
Heating Degree Days 58    
Moisture  
Dew Point -1 °F    
Average Humidity 75    
Maximum Humidity 92    
Minimum Humidity 66    
Precipitation  
Precipitation 0.00 in - - ()
Sea Level Pressure  
Sea Level Pressure 29.93 in    
Wind  
Wind Speed 0 mph (North)    
Max Wind Speed 0 mph    
Max Gust Speed -    
Visibility 7 miles    
Events      
Averages and records for this station are not official NWS values.
T = Trace of Precipitation, MM = Missing Value Source: NWS Daily Summary

Daily Weather History Graph

Daily Weather History Graph

Search for Another Location

Airport:

Trip Planner

Search our weather history database for the weather conditions in past years. The results will help you decide how hot, cold, wet, or windy it might be!

Date:

Astronomy

Jan. 12, 2013 Rise Set
Actual Time 8:10 AM CST 5:07 PM CST
Civil Twilight 7:36 AM CST 5:41 PM CST
Nautical Twilight 6:59 AM CST 6:19 PM CST
Astronomical Twilight 6:23 AM CST 6:55 PM CST
Moon 8:24 AM CST (1/12) 6:45 PM CST (1/12)
Length of Visible Light 10h 04m
Length of Day
8h 57m
New Moon, 1% of the Moon is Illuminated
Jan 12
New Moon
Jan 18
First Quarter
Jan 26
Full
Feb 3
Last Quarter
Feb 10
New

Hourly Weather History & Observations

Time (CST) Temp. Dew Point Humidity Pressure Visibility Wind Dir Wind Speed Gust Speed Precip Events Conditions
12:15 AM 12.2 °F 8.6 °F 85% 29.55 in 4.0 mi Calm Calm - 0.00 in   Overcast
12:35 AM 12.2 °F 8.6 °F 85% 29.57 in 7.0 mi Calm Calm - 0.00 in   Overcast
12:55 AM 12.2 °F 8.6 °F 85% 29.57 in 7.0 mi Calm Calm - 0.00 in   Overcast
1:35 AM 10.4 °F 8.6 °F 92% 29.61 in 5.0 mi Calm Calm - 0.00 in   Overcast
1:55 AM 10.4 °F 6.8 °F 85% 29.63 in 5.0 mi Calm Calm - 0.00 in   Overcast
2:15 AM 10.4 °F 5.0 °F 79% 29.64 in 5.0 mi Calm Calm - 0.00 in   Overcast
2:35 AM 8.6 °F 3.2 °F 79% 29.65 in 3.0 mi Calm Calm - 0.00 in   Overcast
2:55 AM 8.6 °F 3.2 °F 79% 29.67 in 4.0 mi Calm Calm - 0.00 in   Overcast
3:15 AM 8.6 °F 3.2 °F 79% 29.68 in 4.0 mi Calm Calm - 0.00 in   Overcast
3:35 AM 8.6 °F 3.2 °F 79% 29.69 in 3.0 mi Calm Calm - 0.00 in   Overcast
3:55 AM 8.6 °F 3.2 °F 79% 29.70 in 2.0 mi Calm Calm - 0.00 in   Overcast
4:15 AM 8.6 °F 3.2 °F 79% 29.71 in 1.2 mi Calm Calm - 0.00 in   Overcast
4:35 AM 8.6 °F 1.4 °F 73% 29.72 in 3.0 mi Calm Calm - 0.00 in   Overcast
4:55 AM 6.8 °F 1.4 °F 79% 29.73 in 4.0 mi Calm Calm - 0.00 in   Overcast
5:15 AM 6.8 °F 1.4 °F 79% 29.75 in 5.0 mi Calm Calm - 0.00 in   Overcast
5:35 AM 5.0 °F -0.4 °F 78% 29.76 in 6.0 mi Calm Calm - 0.00 in   Overcast
5:55 AM 5.0 °F -0.4 °F 78% 29.77 in 4.0 mi Calm Calm - 0.00 in   Overcast
6:15 AM 5.0 °F -0.4 °F 78% 29.79 in 3.0 mi Calm Calm - 0.00 in   Overcast
6:35 AM 5.0 °F -0.4 °F 78% 29.80 in 5.0 mi Calm Calm - 0.00 in   Overcast
6:55 AM 5.0 °F -0.4 °F 78% 29.81 in 7.0 mi Calm Calm - 0.00 in   Overcast
7:15 AM 5.0 °F -0.4 °F 78% 29.83 in 4.0 mi Calm Calm - 0.00 in   Overcast
7:35 AM 5.0 °F -0.4 °F 78% 29.84 in 8.0 mi Calm Calm - 0.00 in   Overcast
7:55 AM 5.0 °F -0.4 °F 78% 29.85 in 10.0 mi Calm Calm - 0.00 in   Overcast
8:15 AM 5.0 °F -2.2 °F 72% 29.85 in 10.0 mi Calm Calm - 0.00 in   Overcast
8:35 AM 5.0 °F -0.4 °F 78% 29.87 in 10.0 mi Calm Calm - 0.00 in   Overcast
8:55 AM 5.0 °F -2.2 °F 72% 29.89 in 10.0 mi Calm Calm - 0.00 in   Overcast
9:15 AM 5.0 °F -0.4 °F 78% 29.90 in 10.0 mi Calm Calm - 0.00 in   Overcast
9:35 AM 5.0 °F -0.4 °F 78% 29.91 in 4.0 mi Calm Calm - 0.00 in   Overcast
9:55 AM 5.0 °F -0.4 °F 78% 29.92 in 3.0 mi Calm Calm - 0.00 in   Overcast
10:15 AM 5.0 °F -0.4 °F 78% 29.93 in 7.0 mi Calm Calm - 0.00 in   Overcast
10:35 AM 5.0 °F -0.4 °F 78% 29.95 in 7.0 mi Calm Calm - 0.00 in   Overcast
10:55 AM 5.0 °F -0.4 °F 78% 29.96 in 5.0 mi Calm Calm - 0.00 in   Overcast
11:15 AM 5.0 °F -0.4 °F 78% 29.96 in 10.0 mi Calm Calm - 0.00 in   Mostly Cloudy
11:35 AM 6.8 °F -0.4 °F 72% 29.95 in 10.0 mi Calm Calm - 0.00 in   Mostly Cloudy
11:55 AM 6.8 °F -0.4 °F 72% 29.96 in 10.0 mi Calm Calm - 0.00 in   Scattered Clouds
12:15 PM 6.8 °F -0.4 °F 72% 29.97 in 10.0 mi Calm Calm - 0.00 in   Scattered Clouds
12:35 PM 6.8 °F 1.4 °F 79% 29.97 in 9.0 mi Calm Calm - 0.00 in   Mostly Cloudy
12:55 PM 6.8 °F -0.4 °F 72% 29.99 in 10.0 mi Calm Calm - 0.00 in   Mostly Cloudy
1:15 PM 6.8 °F -0.4 °F 72% 30.00 in 10.0 mi Calm Calm - 0.00 in   Overcast
1:35 PM 6.8 °F -0.4 °F 72% 30.00 in 10.0 mi Calm Calm - 0.00 in   Mostly Cloudy
1:55 PM 6.8 °F -0.4 °F 72% 30.01 in 8.0 mi Calm Calm - 0.00 in   Mostly Cloudy
2:15 PM 6.8 °F -0.4 °F 72% 30.02 in 2.5 mi Calm Calm - 0.00 in   Overcast
2:35 PM 8.6 °F 1.4 °F 73% 30.02 in 1.5 mi Calm Calm - 0.00 in   Overcast
2:55 PM 6.8 °F 1.4 °F 79% 30.03 in 1.5 mi Calm Calm - 0.00 in   Overcast
3:15 PM 6.8 °F 1.4 °F 79% 30.04 in 1.2 mi Calm Calm - 0.00 in   Overcast
3:35 PM 5.0 °F -0.4 °F 78% 30.04 in 1.5 mi Calm Calm - 0.00 in   Overcast
3:55 PM 5.0 °F -0.4 °F 78% 30.04 in 2.5 mi Calm Calm - 0.00 in   Overcast
4:15 PM 5.0 °F -2.2 °F 72% 30.05 in 4.0 mi Calm Calm - 0.00 in   Overcast
4:35 PM 5.0 °F -2.2 °F 72% 30.06 in 3.0 mi Calm Calm - 0.00 in   Overcast
4:55 PM 5.0 °F -2.2 °F 72% 30.07 in 4.0 mi Calm Calm - 0.00 in   Overcast
5:15 PM 5.0 °F -2.2 °F 72% 30.07 in 3.0 mi Calm Calm - 0.00 in   Overcast
5:35 PM 5.0 °F -2.2 °F 72% 30.08 in 5.0 mi Calm Calm - 0.00 in   Overcast
5:55 PM 5.0 °F -4.0 °F 66% 30.08 in 10.0 mi Calm Calm - 0.00 in   Mostly Cloudy
6:15 PM 5.0 °F -4.0 °F 66% 30.08 in 10.0 mi Calm Calm - 0.00 in   Scattered Clouds
6:35 PM 5.0 °F -4.0 °F 66% 30.08 in 10.0 mi Calm Calm - 0.00 in   Mostly Cloudy
7:15 PM 3.2 °F -4.0 °F 72% 30.08 in 10.0 mi Calm Calm - 0.00 in   Clear
7:35 PM 3.2 °F -4.0 °F 72% 30.09 in 10.0 mi Calm Calm - 0.00 in   Clear
7:55 PM 3.2 °F -4.0 °F 72% 30.10 in 10.0 mi Calm Calm - 0.00 in   Mostly Cloudy
8:15 PM 3.2 °F -4.0 °F 72% 30.11 in 10.0 mi Calm Calm - 0.00 in   Overcast
8:35 PM 3.2 °F -5.8 °F 66% 30.12 in 10.0 mi Calm Calm - 0.00 in   Overcast
8:55 PM 3.2 °F -5.8 °F 66% 30.13 in 10.0 mi Calm Calm - 0.00 in   Mostly Cloudy
9:15 PM 3.2 °F -5.8 °F 66% 30.14 in 10.0 mi Calm Calm - 0.00 in   Scattered Clouds
9:35 PM 3.2 °F -5.8 °F 66% 30.14 in 10.0 mi Calm Calm - 0.00 in   Scattered Clouds
9:55 PM 3.2 °F -5.8 °F 66% 30.14 in 10.0 mi Calm Calm - 0.00 in   Clear
10:15 PM 3.2 °F -5.8 °F 66% 30.15 in 10.0 mi Calm Calm - 0.00 in   Clear
10:35 PM 3.2 °F -5.8 °F 66% 30.16 in 10.0 mi North - - 0.00 in   Clear
10:55 PM 1.4 °F -5.8 °F 72% 30.16 in 10.0 mi North - - 0.00 in   Clear
11:15 PM 1.4 °F -5.8 °F 72% 30.16 in 10.0 mi North - - 0.00 in   Clear
11:35 PM 1.4 °F -5.8 °F 72% 30.16 in 10.0 mi North - - 0.00 in   Clear
11:55 PM 1.4 °F -5.8 °F 72% 30.16 in 10.0 mi North - - 0.00 in   Clear